Tracking 19831 objects as of 24-Aug-2019
HD Live streaming from Space Station
objects crossing your sky now

TITAN 3C TRANSTAGE DEB

Track TITAN 3C TRANSTAGE DEB now!


NORAD ID: 26528
Int'l Code: 1965-108AP
Perigee: 934.8 km
Apogee: 30,113.0 km
Inclination: 27.2 °
Period: 537.4 minutes
Semi major axis: 21894 km
RCS: 0.117 m2 (medium)
Launch date: December 21, 1965
Source: United States (US)
Launch site: AIR FORCE EASTERN TEST RANGE (AFETR)

Note: This is SATELLITE DEBRIS
aabbcc
Your satellite tracking list
Your tracking list is empty




NASA's NSSDC Master Catalog

Two Line Element Set (TLE):
1 26528U 65108AP  19235.19017184  .00000061  00000-0  88399-2 0  9990
2 26528  27.1601 168.5395 6663229 148.7599 358.8916  2.67970924202152
Source of the keplerian elements: AFSPC